Location: ČR
(50.0000°N, 15.0000°E)
Time: 07:49:49
(UTC+02:00)

A-11 Canister half - Pass Details

Date: 15 March 2026
Orbit: 1514 x 1685 km, 47.2° (Epoch: 18 April)

Event Time Altitude Azimuth Distance (km) Brightness Sun altitude
Rises 22:15:20 0° 285° (WNW) 4,943 12.3 -36.2°
Reaches altitude 10° 22:21:08 10° 260° (W) 3,938 11.3 -36.7°
Maximum altitude 22:24:48 13° 238° (WSW) 3,717 11.0 -37.0°
Enters shadow 22:26:42 12° 226° (SW) 3,764 10.9 -37.2°
Drops below altitude 10° 22:28:27 10° 216° (SW) 3,902 - -37.4°
Sets 22:34:11 0° 190° (S) 4,849 - -37.8°
